Regional Weather Roundup
Issued by NWS

Home | Current Version | Previous Version | Text Only | Print | Product List | Glossary Off
Versions: 1 2 3 4 5 6 7 8 9 10 11 12 13 14 15 16 17 18 19 20 21 22 23 24 25 26 27 28 29 30 31 32 33 34 35 36 37 38 39 40 41 42 43 44 45 46 47 48 49 50

000
ASUS45 KCYS 221010
RWRWY

WYOMING REGIONAL WEATHER ROUNDUP
NATIONAL WEATHER SERVICE CHEYENNE WY
400 AM MDT TUE JUL 22 2014

NOTE:  "FAIR" INDICATES FEW OR NO CLOUDS BELOW 12,000 FEET
WITH NO SIGNIFICANT WEATHER AND/OR OBSTRUCTIONS TO VISIBILITY.

WYZ001-221100-
YELLOWSTONE NATIONAL PARK

CITY           SKY/WX    TMP DP  RH WIND       PRES   REMARKS
LK YELLOWSTONE   N/A     42  41  96 CALM      30.43S
W YELLOWSTONE  NOT AVBL

$$
WYZ002>013-054>058-071-098>099-221100-
NORTHERN WYOMING

CITY           SKY/WX    TMP DP  RH WIND       PRES   REMARKS
JACKSON        MOCLDY    48  46  93 N3        30.33R
CODY           CLOUDY    66  41  39 CALM      30.23R
GREYBULL       MOCLDY    64  51  62 SE5       30.17S
WORLAND        MOCLDY    60  50  69 NE3       30.18R
SHERIDAN       PTCLDY    57  53  86 CALM      30.17R
BUFFALO        PTCLDY    67  48  50 S8        30.23S
GILLETTE       PTCLDY    61  54  77 SW6       30.20R
HULETT         FAIR      55  52  88 MISG      30.21
NEWCASTLE      FAIR      64  54  68 NE6       30.20

$$
WYZ014>020-022>026-101>103-221100-
CENTRAL WYOMING

CITY           SKY/WX    TMP DP  RH WIND       PRES   REMARKS
BIG PINEY      CLEAR     46  38  73 N8        30.38S
PINEDALE       MOSUNNY   46  41  81 NW6       30.39R
DUBOIS         FAIR      52  37  58 NW8       30.38R
LANDER         CLEAR     65  39  38 SW15      30.27S
RIVERTON       PTCLDY    60  40  47 CALM      30.28R
CASPER         PTCLDY    57  51  80 N10       30.26R
DOUGLAS        LGT RAIN  63  52  67 NE6       30.27S

$$
WYZ021-027>030-104>119-221100-
SOUTHERN WYOMING

CITY           SKY/WX    TMP DP  RH WIND       PRES   REMARKS
EVANSTON       CLEAR     56  37  49 SE3       30.38S
KEMMERER       SUNNY     54  37  54 N3        30.40S
FORT BRIDGER   FAIR      58  38  46 SE9       30.41S
ROCK SPRINGS   CLEAR     60  33  36 E6        30.37R
DIXON          FAIR      49  36  61 E6        30.36R
RAWLINS        CLEAR     52  36  54 CALM      30.36R
SARATOGA       FAIR      50  32  50 CALM      30.38R
LARAMIE        PTCLDY    53  38  56 N6        30.38R
CHEYENNE       CLEAR     67  44  43 NW12G21   30.28S
TORRINGTON     CLEAR     66  56  70 N5        30.16R
PINE BLUFFS    FAIR      64  46  52 CALM      30.23R

$$


USA.gov is the U.S. government's official web portal to all federal, state and local government web resources and services.